Probability
26 29 42 55 52 6 0 0 0 0 0 3 3 0 0 3 6 39 42 19 16 52 87 97 97 97 97 100 100 100 100 100 100 100 100 100 100 100 97 97 97 97 97 97 97 94 94 94 94
16 26 42 45 13 0 0 0 0 3 6 10 6 3 0 35 58 55 35 35 29 58 87 94 97 97 97 100 100 100 100 100 100 100 100 100 100 100 97 100 100 100 100 100 100 100 100 100 97
16 29 29 6 0 0 0 0 0 10 10 13 16 26 39 48 65 61 52 45 42 74 90 97 97 97 100 100 100 100 100 100 100 100 100 100 100 100 100 97 100 100 100 100 100 100 100 100 100
23 23 13 3 0 0 0 0 3 10 19 16 19 39 68 84 71 61 55 45 61 87 90 97 97 97 100 100 100 100 100 100 100 100 100 100 97 97 97 100 100 100 100 100 100 100 100 100 97
13 10 6 0 0 0 0 0 0 10 16 23 23 39 84 94 77 65 68 58 74 77 90 97 100 100 100 100 100 100 100 100 100 100 100 97 97 97 97 97 97 100 100 100 97 100 100 97 100
3 3 0 0 0 0 0 0 0 10 23 23 32 48 97 100 87 77 68 58 55 68 87 100 100 100 100 100 100 100 100 100 100 100 100 97 97 97 97 97 94 90 94 97 97 94 97 97 97
3 3 0 0 0 0 0 3 3 6 26 26 32 48 97 97 94 77 65 58 55 68 94 97 97 100 100 100 100 100 100 100 100 100 97 97 97 94 90 90 90 90 94 94 94 94 90 97 97
0 0 0 0 0 0 0 3 10 13 26 55 42 45 87 100 94 90 81 81 68 74 90 97 94 97 100 100 100 97 97 97 97 97 94 94 90 90 87 90 90 90 90 90 81 84 81 84 94
0 0 0 0 0 0 0 3 13 26 45 61 68 71 94 100 97 97 94 87 84 81 94 94 90 97 94 97 94 97 97 97 97 94 94 90 87 84 84 87 90 87 87 77 77 77 74 84 84
0 0 0 0 0 0 0 0 10 23 42 71 84 100 100 100 100 97 97 94 97 97 87 94 94 97 94 94 97 97 94 97 97 97 97 94 94 87 77 87 90 87 81 71 71 61 52 58 58
0 0 0 0 0 0 0 0 3 16 23 55 77 97 100 100 100 100 94 97 97 97 94 87 94 97 90 97 97 97 97 97 97 100 90 94 94 87 81 90 84 87 74 55 55 42 19 23 45
0 0 0 0 0 0 0 0 6 10 23 39 65 94 100 100 94 94 94 97 97 97 97 87 94 97 97 97 100 100 100 100 97 100 87 87 90 87 84 84 71 74 74 71 39 39 26 26 39
0 0 0 0 0 0 0 6 6 16 39 52 77 97 100 94 90 97 97 100 100 100 100 97 97 100 100 100 100 97 90 90 94 100 87 87 81 81 71 77 77 45 61 65 61 35 42 45 32
0 0 0 0 0 0 3 6 13 32 42 61 90 100 94 94 97 97 97 97 100 100 100 100 100 100 100 100 100 94 87 100 90 97 84 77 71 81 74 81 77 42 35 32 39 29 58 35 39
0 0 0 0 0 0 0 10 23 39 52 68 87 100 94 90 90 97 97 97 97 97 100 100 97 100 100 100 100 97 90 90 97 97 94 74 68 81 71 65 71 42 42 61 55 42 39 42 35
0 0 0 0 0 0 0 3 23 42 58 77 87 94 97 94 94 97 97 90 90 90 97 90 87 94 100 97 97 90 90 87 90 94 90 81 65 74 77 61 45 55 42 42 48 32 29 19 16
0 0 0 0 0 0 0 3 26 39 55 71 84 94 100 97 97 94 94 90 94 94 97 87 77 90 90 90 90 84 84 94 84 84 90 87 77 68 61 61 61 61 39 39 19 23 23 23 23
0 0 0 0 0 0 0 3 13 42 52 55 81 87 94 94 87 90 90 87 94 94 97 87 84 90 84 90 87 81 77 84 81 81 87 81 71 71 48 61 74 45 42 39 45 42 55 35 35
0 0 0 0 0 0 0 3 16 45 52 58 68 74 84 87 87 87 87 90 90 84 84 84 77 74 77 77 74 68 71 77 81 74 74 81 71 61 68 45 77 65 48 52 23 42 39 32 39
0 0 0 0 0 0 0 3 10 39 52 61 68 77 81 84 84 90 87 84 84 77 74 77 74 74 71 77 77 74 74 74 65 68 77 71 68 61 55 77 65 65 74 61 52 55 35 39 32
0 0 0 0 0 0 0 0 10 29 48 58 61 68 68 77 84 84 84 81 74 77 74 65 65 74 71 74 71 61 68 68 52 61 55 68 68 58 61 65 58 71 45 45 55 58 48 39 19
0 0 0 0 0 0 0 0 13 16 23 45 58 68 61 71 68 71 81 81 74 74 68 61 61 61 65 65 61 58 55 48 58 58 52 61 58 61 55 65 68 68 45 61 48 39 45 52 42
0 0 0 0 0 0 0 0 0 10 10 26 55 55 52 61 71 84 81 77 74 71 61 55 58 61 65 65 65 61 52 55 52 58 48 58 55 45 48 61 58 58 55 55 48 52 52 45 45
0 0 0 0 0 0 0 0 0 0 10 10 32 45 48 61 68 81 74 77 74 65 58 55 58 65 65 58 55 55 48 48 52 55 42 48 58 55 52 52 55 52 42 45 48 52 58 48 45
0 0 0 0 0 0 0 0 0 16 19 23 32 45 55 68 81 81 74 74 77 74 58 68 68 58 55 55 48 48 52 52 55 52 48 42 39 42 58 45 58 48 45 45 52 52 45 45 48
0 0 0 0 0 0 3 0 0 19 26 26 32 45 58 65 74 77 71 68 68 65 68 61 58 61 58 52 52 52 48 55 48 58 52 45 45 45 48 48 52 45 42 35 55 39 35 52 48
0 0 0 0 0 0 0 0 19 19 35 35 39 55 65 58 65 74 71 65 61 61 61 61 65 61 52 52 52 52 42 42 45 55 52 52 58 45 42 45 45 45 42 42 58 42 48 48 39
0 0 0 0 0 0 0 0 0 23 39 42 48 58 58 68 68 65 61 55 55 58 58 55 58 61 55 45 48 35 42 39 35 42 45 48 58 45 45 39 42 42 45 45 58 45 39 42 42
0 0 0 0 0 0 0 0 6 39 48 52 52 55 61 71 65 58 65 58 55 55 55 55 52 52 48 48 52 45 32 35 32 35 39 42 48 42 42 39 45 32 32 32 45 35 35 32 32
0 0 0 0 0 0 0 6 19 26 48 61 55 48 61 71 65 74 61 58 55 52 55 42 48 42 48 48 45 39 39 39 32 32 32 45 42 35 39 29 23 29 23 29 32 26 29 29 32
Height
5899 5899 5899 5899 5900 5901 5900 5899 5898 5897 5895 5894 5893 5892 5892 5892 5892 5894 5892 5890 5891 5891 5892 5892 5893 5894 5895 5895 5896 5896 5896 5897 5897 5897 5897 5898 5898 5898 5898 5898 5898 5898 5898 5898 5898 5898 5898 5898 5898
5899 5899 5900 5901 5902 5902 5901 5900 5899 5897 5896 5895 5893 5893 5892 5891 5891 5891 5891 5891 5891 5891 5892 5892 5893 5894 5895 5895 5896 5896 5897 5897 5897 5898 5898 5898 5898 5898 5898 5899 5899 5899 5899 5899 5899 5899 5899 5899 5898
5900 5900 5901 5902 5902 5903 5902 5901 5899 5898 5897 5896 5894 5893 5893 5892 5891 5891 5891 5891 5891 5891 5892 5892 5893 5894 5894 5895 5896 5896 5897 5897 5898 5898 5898 5898 5898 5899 5899 5899 5899 5899 5899 5899 5899 5899 5899 5899 5899
5900 5901 5902 5904 5903 5903 5902 5901 5899 5898 5897 5896 5895 5894 5893 5892 5891 5891 5891 5891 5891 5891 5892 5892 5893 5894 5894 5895 5896 5896 5897 5897 5898 5898 5898 5899 5899 5899 5899 5899 5900 5900 5900 5900 5899 5899 5899 5899 5899
5900 5902 5903 5904 5904 5903 5902 5901 5900 5899 5898 5897 5896 5895 5893 5893 5892 5891 5891 5891 5891 5891 5891 5892 5892 5893 5894 5895 5895 5896 5896 5897 5898 5898 5898 5899 5899 5899 5900 5900 5900 5900 5900 5900 5900 5899 5899 5899 5899
5902 5902 5905 5906 5904 5903 5902 5901 5900 5899 5898 5897 5896 5895 5894 5893 5892 5891 5891 5891 5891 5891 5891 5892 5892 5893 5894 5894 5895 5895 5896 5897 5897 5898 5898 5899 5899 5900 5900 5900 5900 5900 5900 5900 5900 5900 5900 5900 5900
5902 5903 5905 5905 5904 5904 5903 5902 5901 5900 5899 5898 5897 5895 5894 5893 5892 5891 5891 5891 5891 5891 5891 5891 5892 5892 5893 5894 5895 5895 5896 5896 5897 5897 5898 5899 5899 5900 5900 5900 5900 5900 5900 5900 5900 5900 5900 5900 5900
5901 5903 5904 5904 5904 5904 5903 5902 5901 5900 5899 5898 5897 5895 5894 5893 5892 5891 5891 5891 5890 5891 5891 5891 5891 5892 5892 5893 5894 5895 5896 5896 5897 5897 5898 5898 5899 5899 5899 5900 5900 5900 5900 5900 5900 5900 5900 5900 5900
5901 5903 5904 5904 5904 5903 5902 5902 5901 5900 5899 5898 5896 5895 5894 5893 5892 5891 5891 5890 5890 5890 5890 5891 5891 5891 5892 5892 5893 5894 5895 5895 5896 5897 5897 5898 5898 5898 5899 5900 5900 5900 5900 5900 5900 5900 5900 5900 5900
5900 5902 5902 5902 5902 5902 5902 5901 5900 5900 5899 5898 5896 5895 5893 5892 5891 5891 5890 5890 5889 5890 5890 5890 5890 5890 5891 5891 5892 5893 5893 5894 5895 5896 5897 5897 5898 5898 5899 5899 5899 5900 5900 5900 5900 5900 5900 5900 5900
5899 5900 5900 5900 5900 5901 5900 5900 5900 5899 5899 5897 5896 5894 5893 5891 5891 5890 5890 5889 5889 5889 5889 5889 5889 5889 5890 5890 5891 5891 5892 5893 5894 5895 5896 5897 5897 5897 5898 5898 5899 5899 5900 5900 5900 5900 5900 5900 5900
5898 5898 5898 5898 5899 5899 5899 5899 5899 5899 5898 5897 5895 5894 5892 5891 5890 5890 5889 5889 5888 5888 5888 5888 5888 5888 5888 5888 5889 5890 5891 5892 5893 5894 5895 5896 5896 5897 5897 5898 5898 5899 5899 5899 5899 5900 5900 5900 5900
5897 5897 5896 5897 5897 5897 5898 5898 5898 5898 5897 5896 5895 5893 5892 5890 5890 5889 5889 5888 5888 5887 5887 5887 5886 5886 5886 5886 5887 5888 5889 5890 5891 5892 5893 5894 5895 5896 5897 5897 5898 5898 5899 5899 5899 5899 5899 5900 5900
5895 5895 5895 5895 5895 5896 5896 5897 5897 5896 5896 5895 5894 5893 5892 5891 5890 5889 5888 5887 5886 5886 5885 5885 5885 5884 5884 5884 5884 5885 5887 5888 5889 5890 5891 5893 5894 5895 5896 5897 5897 5898 5898 5898 5899 5899 5899 5899 5899
5893 5894 5894 5894 5894 5894 5895 5896 5895 5895 5894 5893 5892 5892 5891 5890 5889 5888 5887 5886 5885 5884 5883 5882 5882 5881 5881 5881 5882 5882 5883 5885 5887 5888 5889 5891 5893 5894 5895 5896 5896 5897 5897 5898 5898 5899 5899 5899 5899
5891 5892 5892 5892 5892 5892 5895 5896 5894 5893 5893 5892 5891 5890 5889 5888 5887 5886 5885 5884 5883 5882 5880 5880 5879 5878 5878 5878 5879 5879 5880 5882 5884 5885 5887 5888 5890 5892 5893 5895 5895 5896 5896 5897 5898 5898 5898 5899 5899
5889 5890 5891 5890 5890 5890 5892 5892 5892 5891 5891 5890 5889 5889 5888 5887 5885 5884 5883 5882 5880 5879 5878 5876 5875 5875 5875 5875 5876 5877 5878 5879 5881 5883 5884 5886 5888 5890 5891 5893 5894 5895 5895 5896 5897 5897 5898 5899 5899
5887 5887 5888 5887 5887 5888 5889 5889 5889 5889 5888 5888 5887 5887 5886 5885 5884 5882 5881 5880 5878 5877 5875 5873 5872 5872 5871 5872 5872 5873 5875 5877 5878 5880 5882 5883 5885 5888 5889 5891 5892 5893 5894 5895 5896 5896 5897 5898 5898
5883 5884 5885 5884 5884 5886 5886 5887 5887 5886 5886 5886 5886 5885 5884 5883 5881 5880 5879 5877 5876 5874 5872 5871 5870 5869 5869 5869 5869 5870 5872 5874 5876 5878 5879 5881 5883 5885 5887 5889 5890 5891 5893 5894 5895 5895 5896 5897 5898
5880 5881 5881 5881 5882 5883 5884 5884 5884 5884 5884 5884 5883 5883 5882 5880 5879 5878 5876 5875 5873 5872 5870 5869 5867 5866 5866 5866 5866 5868 5869 5871 5873 5875 5877 5879 5881 5883 5885 5887 5888 5889 5891 5892 5893 5894 5895 5896 5897
5876 5877 5878 5878 5879 5880 5882 5883 5882 5882 5882 5881 5881 5880 5879 5878 5876 5875 5873 5872 5870 5869 5867 5866 5864 5864 5863 5863 5864 5865 5867 5868 5871 5873 5875 5876 5878 5880 5883 5884 5886 5888 5889 5890 5892 5893 5894 5895 5896
5872 5873 5874 5875 5877 5878 5880 5883 5880 5879 5879 5878 5878 5877 5876 5875 5873 5872 5870 5869 5868 5866 5865 5864 5862 5862 5861 5861 5862 5863 5864 5866 5868 5869 5871 5874 5876 5878 5880 5882 5884 5885 5887 5888 5890 5891 5892 5893 5894
5868 5869 5871 5872 5874 5876 5876 5879 5880 5877 5876 5876 5875 5874 5873 5872 5870 5869 5867 5866 5865 5863 5862 5861 5860 5860 5859 5859 5860 5861 5862 5863 5865 5867 5869 5871 5873 5875 5877 5879 5881 5883 5884 5886 5887 5888 5890 5891 5892
5863 5866 5867 5868 5871 5873 5874 5875 5876 5874 5873 5872 5872 5871 5870 5869 5868 5866 5865 5864 5863 5862 5861 5859 5858 5857 5857 5857 5858 5858 5859 5860 5862 5864 5866 5868 5870 5872 5874 5876 5878 5880 5882 5883 5884 5886 5887 5889 5890
5860 5863 5865 5867 5868 5870 5870 5871 5872 5870 5869 5869 5868 5868 5867 5867 5866 5864 5863 5862 5861 5860 5859 5857 5856 5855 5855 5855 5855 5856 5856 5857 5859 5860 5862 5864 5866 5869 5871 5873 5875 5877 5879 5880 5882 5883 5885 5886 5887
5855 5859 5863 5866 5868 5868 5866 5867 5868 5866 5866 5865 5865 5865 5864 5864 5863 5863 5861 5860 5859 5858 5856 5855 5854 5853 5853 5852 5853 5853 5853 5854 5855 5857 5858 5860 5863 5865 5867 5869 5871 5873 5875 5877 5879 5880 5881 5883 5884
5851 5853 5858 5861 5862 5864 5864 5863 5863 5862 5862 5862 5862 5862 5862 5861 5861 5860 5859 5858 5856 5855 5854 5852 5851 5851 5850 5850 5849 5849 5850 5851 5852 5853 5854 5856 5859 5861 5863 5866 5868 5870 5872 5873 5875 5876 5878 5879 5880
5846 5849 5852 5856 5858 5860 5861 5860 5861 5859 5859 5860 5859 5859 5859 5859 5858 5857 5856 5855 5854 5853 5851 5850 5849 5848 5847 5847 5846 5846 5846 5847 5848 5849 5851 5852 5855 5857 5859 5862 5864 5866 5868 5870 5871 5873 5874 5875 5876
5842 5845 5847 5851 5854 5857 5859 5861 5857 5856 5857 5857 5857 5857 5856 5856 5855 5855 5854 5853 5852 5850 5849 5847 5846 5845 5844 5843 5843 5843 5844 5844 5844 5845 5847 5848 5850 5852 5854 5857 5860 5862 5864 5865 5867 5868 5870 5871 5872
5837 5840 5843 5847 5849 5851 5855 5858 5852 5853 5853 5853 5854 5854 5853 5853 5853 5852 5851 5850 5849 5848 5847 5845 5844 5843 5842 5841 5841 5841 5841 5840 5841 5842 5843 5844 5846 5848 5850 5853 5855 5857 5859 5861 5862 5864 5865 5866 5867
Wind_Speed
10 11 11 11 12 12 10 9 9 9 9 9 9 8 8 7 6 5 4 4 5 5 6 7 7 7 7 7 7 8 9 9 9 9 10 10 10 9 9 9 8 8 7 7 7 7 6 6 6
9 10 10 10 13 10 9 9 9 9 9 9 9 9 8 7 6 5 4 4 4 4 6 7 7 7 8 8 8 8 8 9 9 9 9 9 9 9 9 9 8 7 7 7 7 6 6 6 6
8 9 9 10 10 8 8 8 8 8 8 8 9 9 9 7 6 5 4 4 4 4 5 6 7 8 8 8 8 8 8 8 8 8 8 8 8 8 8 8 8 7 6 6 6 6 6 6 6
7 8 8 9 7 7 7 8 8 8 9 9 8 9 9 8 6 5 4 3 3 4 5 6 7 8 8 8 8 8 8 8 8 8 8 8 8 7 7 7 7 6 6 6 6 6 5 5 5
7 7 8 7 5 6 7 8 8 8 8 8 8 8 8 8 7 6 4 4 3 4 4 5 6 7 8 9 9 8 8 8 8 8 7 7 7 7 6 6 6 6 6 6 6 5 5 5 4
7 7 7 3 4 5 6 7 7 7 7 7 7 7 7 7 7 6 5 4 3 2 3 4 6 7 8 9 9 9 8 8 8 8 7 7 6 6 6 5 5 6 5 5 5 5 4 4 4
6 6 4 3 3 4 5 5 6 6 6 6 6 7 7 7 7 6 5 3 2 1 1 3 6 7 8 9 9 8 8 7 7 7 7 7 6 5 5 5 4 4 4 4 4 4 4 3 3
4 4 4 3 3 3 4 4 4 5 5 6 5 6 6 7 6 6 5 4 2 0 1 2 5 6 7 8 8 8 8 7 7 7 7 6 5 5 5 4 4 3 3 3 4 3 3 3 3
4 3 2 2 2 2 3 3 4 4 5 5 5 6 6 6 6 5 5 4 2 1 1 2 4 6 7 8 9 9 8 8 8 7 7 6 5 5 5 4 3 3 2 3 3 3 3 2 2
4 3 2 3 3 3 3 3 3 4 5 6 6 6 6 6 6 5 5 4 3 2 2 3 4 5 6 7 9 9 9 9 9 8 7 6 5 4 4 4 3 2 2 2 3 3 2 2 2
5 4 4 4 3 3 3 3 3 4 5 6 6 6 6 5 5 4 5 5 4 3 3 3 5 6 7 8 9 10 10 10 9 9 8 7 6 5 5 4 3 2 1 2 2 2 2 2 1
5 5 5 4 4 3 2 2 3 3 4 6 6 6 6 5 5 4 5 5 5 5 4 4 5 6 7 8 10 11 11 11 10 10 9 8 7 6 5 4 3 2 1 1 1 2 2 2 1
6 6 6 6 5 3 3 3 3 4 5 6 6 6 6 6 6 5 5 6 6 5 5 6 7 8 8 9 11 13 13 12 11 11 11 10 8 8 6 5 4 3 2 1 0 1 1 1 1
7 7 7 7 6 5 4 4 4 5 6 6 6 6 6 6 6 6 7 7 8 7 6 7 8 9 9 10 11 13 14 14 13 13 12 11 10 9 8 6 5 4 3 2 1 1 1 1 1
8 8 8 8 7 6 5 5 6 6 6 6 6 6 6 6 7 8 8 8 9 8 8 9 10 10 10 11 12 13 14 15 14 14 13 13 12 11 9 8 6 4 4 3 2 1 1 1 1
9 9 10 9 8 6 5 6 7 6 6 6 7 7 7 7 8 9 9 9 9 10 10 10 11 11 12 11 12 14 15 15 15 15 14 14 13 12 11 9 7 6 5 4 3 2 2 2 2
10 9 10 11 9 7 6 7 7 7 7 7 7 8 8 8 9 9 10 10 10 11 11 11 11 11 11 12 13 14 14 15 16 15 15 15 15 13 12 11 9 7 6 6 5 4 3 3 3
11 10 11 12 10 8 7 7 8 7 7 8 8 8 9 10 10 11 10 10 11 11 11 11 10 10 11 11 12 14 14 14 15 16 15 15 15 14 13 12 10 9 8 7 6 5 5 4 4
12 12 12 13 11 9 8 8 8 8 8 9 9 9 10 11 10 10 11 11 12 12 12 11 10 10 11 12 12 13 15 14 15 16 16 15 16 15 14 13 12 10 9 8 7 7 6 6 5
13 13 13 13 11 9 8 8 8 8 9 9 10 10 10 10 11 13 12 12 12 12 13 13 11 11 12 12 12 12 15 15 15 17 16 16 16 16 15 15 13 12 10 10 9 8 8 7 7
15 14 14 13 11 10 8 9 10 10 11 11 11 11 11 12 12 13 13 12 12 13 13 13 12 10 9 10 11 12 14 15 15 15 16 17 17 17 16 15 14 13 12 11 10 10 9 9 8
16 15 15 13 11 11 9 8 12 11 11 11 11 12 13 12 13 13 12 12 11 12 13 12 10 10 10 10 11 12 14 15 16 16 17 17 17 17 17 15 15 14 13 12 12 11 11 10 10
17 16 15 13 12 11 11 9 11 12 12 13 13 13 13 12 12 11 11 11 11 12 12 11 11 10 9 9 10 12 14 15 17 18 17 16 17 18 18 16 15 14 14 13 13 13 12 11 11
18 16 15 13 13 13 12 10 11 12 13 13 13 13 12 11 10 10 10 10 10 11 11 11 11 10 9 9 10 12 13 15 16 17 17 17 17 17 18 17 16 16 15 15 14 14 13 12 12
19 16 15 14 14 13 14 11 12 13 12 12 12 11 10 10 10 9 9 9 10 11 11 11 11 10 10 10 11 12 13 15 16 17 18 18 18 18 18 18 17 17 17 16 15 15 15 14 13
19 18 16 14 13 13 15 12 13 12 11 11 11 10 9 9 8 8 8 8 9 10 11 11 11 10 10 11 12 13 13 14 15 16 17 19 19 19 19 19 19 18 18 17 17 17 17 16 15
20 18 17 16 15 13 14 13 12 12 11 10 9 9 8 8 8 8 9 9 10 11 12 11 11 10 10 11 11 12 13 13 15 16 17 18 18 19 20 20 20 20 19 18 17 18 18 17 16
21 19 19 17 15 14 13 12 12 12 11 10 9 9 8 8 9 9 9 10 11 12 12 11 12 11 11 11 12 12 13 14 15 17 17 18 19 19 20 21 21 21 21 20 20 19 19 18 18
21 20 19 17 16 14 12 13 14 13 12 11 10 10 10 10 11 11 11 12 12 13 12 11 12 12 11 10 11 12 13 14 15 16 18 19 20 20 20 22 22 22 22 22 22 21 21 20 20
21 20 19 18 17 15 13 15 15 13 12 12 11 11 11 11 11 11 12 13 13 12 12 12 11 11 11 10 11 12 12 13 15 15 16 18 19 20 20 21 22 22 23 23 23 23 23 23 22
Wind_Direction
68 67 68 66 63 63 64 66 70 70 75 77 80 82 85 87 94 105 118 131 142 153 163 165 167 170 168 159 151 141 134 130 124 119 114 109 104 99 96 95 94 92 89 88 87 85 85 87 88
67 68 69 67 68 65 60 63 64 65 69 71 75 76 77 80 86 97 112 129 140 153 165 173 175 176 173 166 160 151 144 138 129 123 118 113 107 103 101 98 95 92 89 87 87 85 83 86 90
65 67 68 69 72 70 58 58 60 59 65 66 69 70 68 69 75 81 98 119 141 158 167 176 184 181 177 174 170 161 153 145 136 129 125 119 113 109 105 101 97 92 87 86 87 86 84 85 89
63 66 66 68 67 56 51 49 48 55 56 58 61 62 61 61 67 73 84 96 126 156 166 175 183 184 181 179 176 170 163 155 147 139 132 124 117 113 109 104 99 92 87 85 87 88 86 87 89
61 66 66 67 60 50 40 36 38 43 46 49 51 53 52 56 58 63 73 89 112 147 166 179 185 188 186 185 182 177 171 164 156 148 140 131 123 118 113 106 99 93 89 85 83 85 86 87 88
59 64 77 72 46 43 29 28 32 35 39 41 44 45 45 47 49 51 58 78 100 129 162 186 190 191 191 189 186 181 176 170 164 159 148 139 131 123 117 112 103 93 88 83 80 81 83 87 91
50 59 76 56 30 26 18 19 26 26 32 36 36 38 39 41 45 45 48 57 69 90 178 201 206 198 196 194 191 188 183 178 172 168 158 147 140 132 130 122 109 97 89 82 79 81 81 86 94
34 45 48 43 32 14 3 3 10 12 21 21 24 26 29 30 34 38 37 37 35 34 234 222 219 211 206 201 199 195 190 186 181 173 167 155 151 144 144 133 121 107 94 82 76 76 81 85 87
10 26 28 22 26 4 358 349 353 360 0 1 6 11 17 19 23 29 28 23 6 316 263 238 229 223 220 214 207 202 199 197 193 185 177 168 163 155 154 147 138 122 101 85 74 72 83 91 83
349 355 332 360 3 350 356 355 349 354 347 347 352 359 5 14 17 20 18 15 360 311 268 241 232 230 226 217 211 209 207 204 202 195 187 182 175 164 162 161 156 143 114 80 70 71 86 91 84
333 323 320 337 338 336 339 347 345 354 342 341 348 355 357 7 12 12 6 1 351 329 286 249 240 238 235 227 221 220 218 215 209 204 196 193 187 183 177 179 178 172 134 79 64 74 89 96 92
321 315 311 317 317 323 322 323 334 329 327 330 343 354 349 355 3 8 358 349 336 319 290 261 254 245 241 236 231 230 226 225 220 214 209 206 204 202 195 196 202 208 204 69 53 79 98 109 112
308 308 303 306 308 307 307 294 292 292 311 327 331 341 342 350 355 344 339 337 327 312 290 274 267 255 249 244 238 234 231 228 225 223 221 217 215 214 212 209 218 224 229 228 134 107 132 132 127
296 297 299 299 297 299 303 294 285 282 299 314 315 323 330 339 343 336 327 323 315 307 292 283 278 265 257 250 243 237 233 231 230 229 224 222 221 217 216 217 220 221 222 218 201 187 171 158 142
286 292 296 294 291 292 296 293 289 280 293 306 308 316 321 324 325 323 319 316 310 309 298 285 279 269 262 256 246 238 233 232 230 232 226 224 223 222 218 217 218 219 220 216 212 206 189 184 163
278 283 288 291 290 292 287 280 281 280 286 294 299 302 309 313 313 314 315 314 314 313 305 297 285 275 266 260 251 241 235 233 232 233 227 223 222 221 219 218 219 220 220 218 215 212 200 184 168
272 273 275 286 289 288 278 264 279 283 282 280 287 293 297 303 306 307 312 315 315 314 310 306 291 274 267 264 255 242 237 234 232 230 227 223 220 220 222 220 220 222 221 217 216 218 213 200 185
264 263 267 276 283 280 273 268 277 281 274 271 280 288 292 295 297 302 308 311 312 312 311 308 298 280 269 265 253 242 236 233 229 228 228 224 221 222 224 223 224 223 221 220 217 219 219 212 204
255 256 262 270 277 273 269 270 276 276 272 271 276 283 287 290 291 299 305 307 311 312 313 311 301 281 272 261 251 242 234 229 228 227 226 226 222 222 226 225 224 223 221 222 222 223 224 219 218
254 257 260 268 270 268 267 271 271 271 273 270 270 280 289 292 295 301 300 303 307 308 307 305 301 292 276 257 243 237 231 231 231 230 228 226 225 226 227 227 226 223 223 224 225 226 224 222 221
254 255 257 264 267 266 267 273 271 273 277 270 272 278 285 293 297 300 300 300 303 303 302 300 297 295 280 257 244 238 232 232 232 231 229 228 228 228 227 227 226 225 226 226 227 227 226 224 224
251 253 256 262 260 263 260 258 273 274 276 273 272 277 285 291 294 294 294 296 300 302 301 301 305 295 282 262 250 244 237 233 233 231 231 230 228 226 225 227 226 226 228 230 230 229 228 227 227
247 251 254 259 257 257 262 254 267 272 272 271 271 275 282 289 294 291 291 295 299 303 305 302 298 296 283 261 250 251 243 239 236 233 232 229 226 225 226 226 225 227 229 231 232 231 230 231 231
245 248 252 255 255 253 256 255 263 267 271 274 273 274 280 286 293 292 294 295 301 303 302 304 300 294 283 268 257 257 247 240 235 233 233 229 228 228 228 228 229 231 232 234 234 232 231 232 233
242 242 244 248 250 251 256 254 256 263 269 272 273 272 276 280 289 294 299 300 305 308 305 306 306 297 282 275 267 260 249 240 237 236 235 231 231 230 230 230 232 232 233 234 235 235 233 233 236
240 237 233 235 243 249 260 255 258 264 268 272 271 270 271 275 283 290 296 302 308 310 309 308 308 297 282 277 270 263 255 246 242 240 237 233 232 229 231 232 232 232 232 235 235 235 234 236 240
235 234 231 233 237 239 256 258 261 264 267 270 267 266 267 271 276 284 288 293 304 311 311 305 302 292 283 279 274 265 259 252 247 243 238 232 231 231 233 232 233 234 233 235 236 237 237 238 241
231 231 230 228 233 238 253 260 258 260 262 263 264 261 260 263 271 278 285 292 300 306 308 300 298 292 285 283 278 270 261 254 248 245 237 234 234 234 235 233 233 234 235 236 237 238 239 241 245
230 230 231 229 231 232 246 257 255 255 255 257 260 257 260 264 270 275 280 287 293 299 302 296 294 290 285 286 277 264 259 255 248 243 237 234 235 236 236 233 234 236 237 238 238 239 242 245 248
229 230 231 231 237 233 234 252 256 252 250 251 254 255 260 267 269 270 276 283 288 293 296 293 291 290 286 280 276 266 260 257 248 242 242 240 238 237 236 235 238 240 240 241 241 242 244 247 251